TAM3333 SBVT-SBGR

Flight info

Callsign TAM3333
Flight time 1h 10m
Altitude 36000
Route USVAG DCT SIDUR DCT EDMUS
Aircraft A320/M-SDE3FGHIRWY/LB1

Departure

Time 2026-05-07 15:18
Airport Eurico de Aguiar Salles International Airport (SBVT)

Arrival

Time 2026-05-07 16:28
Airport São Paulo/Guarulhos–Governor André Franco Montoro International Airport (SBGR)
Time Latitude Longitude Altitude Speed Heading
2026-05-07 14:15 -20.26501 -40.28174 19 ft 0 kts 262°
2026-05-07 15:12 -20.26500 -40.28164 19 ft 2 kts 262°
2026-05-07 15:12 -20.26498 -40.28148 19 ft 2 kts 262°
2026-05-07 15:12 -20.26496 -40.28132 19 ft 2 kts 262°
2026-05-07 15:13 -20.26495 -40.28122 19 ft 2 kts 255°
2026-05-07 15:13 -20.26486 -40.28110 19 ft 2 kts 211°
2026-05-07 15:13 -20.26473 -40.28106 19 ft 0 kts 176°
2026-05-07 15:13 -20.26467 -40.28107 19 ft 1 kts 169°
2026-05-07 15:14 -20.26465 -40.28107 19 ft 0 kts 171°
2026-05-07 15:15 -20.26473 -40.28106 19 ft 3 kts 167°
2026-05-07 15:16 -20.26503 -40.28079 19 ft 7 kts 128°
2026-05-07 15:16 -20.26539 -40.28038 19 ft 7 kts 149°
2026-05-07 15:16 -20.26593 -40.28025 19 ft 7 kts 159°
2026-05-07 15:16 -20.26615 -40.27972 19 ft 9 kts 83°
2026-05-07 15:17 -20.26605 -40.27903 19 ft 9 kts 82°
2026-05-07 15:17 -20.26591 -40.27853 19 ft 4 kts 20°
2026-05-07 15:17 -20.26578 -40.27853 19 ft 6 kts 352°
2026-05-07 15:17 -20.26264 -40.27899 18 ft 83 kts 352°
2026-05-07 15:18 -20.25459 -40.28020 18 ft 146 kts 352°
2026-05-07 15:18 -20.24341 -40.28194 348 ft 168 kts 354°
2026-05-07 15:18 -20.23195 -40.28419 923 ft 178 kts 337°
2026-05-07 15:18 -20.22292 -40.29440 1390 ft 202 kts 304°
2026-05-07 15:19 -20.21549 -40.30802 1867 ft 224 kts 302°
2026-05-07 15:19 -20.20818 -40.32238 2769 ft 225 kts 300°
2026-05-07 15:19 -20.20419 -40.33841 3567 ft 236 kts 268°
2026-05-07 15:19 -20.20954 -40.35514 4354 ft 247 kts 235°
2026-05-07 15:20 -20.22142 -40.36893 4909 ft 264 kts 223°
2026-05-07 15:20 -20.23544 -40.38245 5477 ft 281 kts 220°
2026-05-07 15:20 -20.25063 -40.39617 6222 ft 290 kts 219°
2026-05-07 15:20 -20.26592 -40.41017 7049 ft 295 kts 220°
2026-05-07 15:21 -20.28151 -40.42466 7884 ft 300 kts 220°
2026-05-07 15:21 -20.29719 -40.43942 8713 ft 304 kts 221°
2026-05-07 15:21 -20.31299 -40.45440 9526 ft 307 kts 221°
2026-05-07 15:21 -20.32897 -40.46963 10345 ft 310 kts 221°
2026-05-07 15:22 -20.34520 -40.48513 10929 ft 321 kts 221°
2026-05-07 15:22 -20.36206 -40.50125 11578 ft 329 kts 221°
2026-05-07 15:22 -20.37902 -40.51747 12340 ft 331 kts 221°
2026-05-07 15:22 -20.39627 -40.53399 13047 ft 335 kts 221°
2026-05-07 15:23 -20.41360 -40.55059 13753 ft 338 kts 221°
2026-05-07 15:23 -20.43110 -40.56734 14453 ft 341 kts 221°
2026-05-07 15:23 -20.44866 -40.58416 15104 ft 344 kts 221°
2026-05-07 15:23 -20.46652 -40.60129 15775 ft 346 kts 221°
2026-05-07 15:24 -20.48447 -40.61850 16399 ft 350 kts 221°
2026-05-07 15:24 -20.50257 -40.63587 17025 ft 352 kts 222°
2026-05-07 15:24 -20.52077 -40.65332 17629 ft 355 kts 222°
2026-05-07 15:24 -20.53914 -40.67098 18257 ft 357 kts 222°
2026-05-07 15:25 -20.55754 -40.68867 18883 ft 358 kts 222°
2026-05-07 15:25 -20.57622 -40.70664 19504 ft 359 kts 221°
2026-05-07 15:25 -20.59480 -40.72450 20144 ft 360 kts 221°
2026-05-07 15:25 -20.61325 -40.74224 20805 ft 360 kts 221°
2026-05-07 15:26 -20.63174 -40.76002 21454 ft 359 kts 221°
2026-05-07 15:26 -20.65030 -40.77788 22065 ft 360 kts 221°
2026-05-07 15:26 -20.66909 -40.79596 22663 ft 361 kts 221°
2026-05-07 15:26 -20.68693 -40.81463 23228 ft 363 kts 225°
2026-05-07 15:27 -20.70327 -40.83516 23766 ft 366 kts 231°
2026-05-07 15:27 -20.71816 -40.85761 24296 ft 369 kts 233°
2026-05-07 15:27 -20.73246 -40.88044 24810 ft 371 kts 234°
2026-05-07 15:27 -20.74666 -40.90329 25309 ft 373 kts 233°
2026-05-07 15:28 -20.76100 -40.92632 25789 ft 375 kts 233°
2026-05-07 15:28 -20.77543 -40.94952 26263 ft 377 kts 233°
2026-05-07 15:28 -20.78991 -40.97282 26732 ft 378 kts 232°
2026-05-07 15:28 -20.80460 -40.99641 27205 ft 379 kts 232°
2026-05-07 15:29 -20.81917 -41.01982 27659 ft 381 kts 232°
2026-05-07 15:29 -20.83380 -41.04331 28059 ft 383 kts 232°
2026-05-07 15:29 -20.84868 -41.06718 28468 ft 385 kts 232°
2026-05-07 15:29 -20.86346 -41.09094 28871 ft 387 kts 232°
2026-05-07 15:30 -20.87841 -41.11499 29287 ft 388 kts 231°
2026-05-07 15:30 -20.89337 -41.13905 29687 ft 390 kts 231°
2026-05-07 15:30 -20.90827 -41.16298 30072 ft 391 kts 231°
2026-05-07 15:30 -20.92340 -41.18734 30469 ft 392 kts 231°
2026-05-07 15:31 -20.93847 -41.21159 30840 ft 394 kts 231°
2026-05-07 15:31 -20.95375 -41.23618 31196 ft 395 kts 231°
2026-05-07 15:31 -20.96895 -41.26068 31556 ft 396 kts 231°
2026-05-07 15:31 -20.98408 -41.28507 31904 ft 397 kts 232°
2026-05-07 15:32 -20.99928 -41.30960 32237 ft 398 kts 231°
2026-05-07 15:32 -21.01477 -41.33460 32548 ft 400 kts 232°
2026-05-07 15:32 -21.03015 -41.35941 32830 ft 402 kts 232°
2026-05-07 15:32 -21.04560 -41.38437 33132 ft 403 kts 232°
2026-05-07 15:33 -21.06103 -41.40931 33433 ft 404 kts 232°
2026-05-07 15:33 -21.07650 -41.43435 33727 ft 405 kts 232°
2026-05-07 15:33 -21.09204 -41.45949 34003 ft 406 kts 232°
2026-05-07 15:33 -21.10763 -41.48472 34279 ft 408 kts 232°
2026-05-07 15:34 -21.12329 -41.51007 34543 ft 409 kts 232°
2026-05-07 15:34 -21.13887 -41.53531 34796 ft 411 kts 232°
2026-05-07 15:34 -21.15478 -41.56108 35028 ft 412 kts 232°
2026-05-07 15:34 -21.17051 -41.58659 35270 ft 413 kts 232°
2026-05-07 15:35 -21.18626 -41.61212 35504 ft 414 kts 232°
2026-05-07 15:35 -21.20214 -41.63791 35747 ft 414 kts 232°
2026-05-07 15:35 -21.21796 -41.66361 36008 ft 414 kts 232°
2026-05-07 15:35 -21.23384 -41.68941 36073 ft 418 kts 232°
2026-05-07 15:36 -21.26613 -41.74185 36074 ft 425 kts 232°
2026-05-07 15:36 -21.29868 -41.79481 36080 ft 426 kts 232°
2026-05-07 15:37 -21.33125 -41.84787 36086 ft 425 kts 232°
2026-05-07 15:37 -21.36375 -41.90084 36096 ft 425 kts 232°
2026-05-07 15:38 -21.39604 -41.95354 36099 ft 425 kts 232°
2026-05-07 15:38 -21.42864 -42.00678 36108 ft 425 kts 232°
2026-05-07 15:39 -21.46102 -42.05972 36103 ft 425 kts 232°
2026-05-07 15:39 -21.49326 -42.11249 36102 ft 424 kts 232°
2026-05-07 15:40 -21.52551 -42.16532 36096 ft 424 kts 232°
2026-05-07 15:40 -21.55793 -42.21844 36093 ft 424 kts 232°
2026-05-07 15:41 -21.59009 -42.27123 36090 ft 423 kts 232°
2026-05-07 15:41 -21.62228 -42.32410 36095 ft 423 kts 232°
2026-05-07 15:42 -21.65432 -42.37677 36096 ft 423 kts 232°
2026-05-07 15:42 -21.68648 -42.42972 36098 ft 423 kts 232°
2026-05-07 15:43 -21.71864 -42.48273 36100 ft 422 kts 232°
2026-05-07 15:43 -21.75048 -42.53522 36100 ft 422 kts 232°
2026-05-07 15:44 -21.78253 -42.58811 36110 ft 421 kts 232°
2026-05-07 15:44 -21.81451 -42.64096 36116 ft 421 kts 232°
2026-05-07 15:45 -21.84633 -42.69358 36120 ft 420 kts 233°
2026-05-07 15:45 -21.87812 -42.74620 36124 ft 420 kts 233°
2026-05-07 15:46 -21.92580 -42.82525 36126 ft 419 kts 233°
2026-05-07 15:47 -21.95750 -42.87783 36120 ft 419 kts 233°
2026-05-07 15:47 -21.98912 -42.93034 36120 ft 418 kts 233°
2026-05-07 15:48 -22.02067 -42.98281 36118 ft 419 kts 233°
2026-05-07 15:48 -22.05245 -43.03569 36125 ft 419 kts 233°
2026-05-07 15:49 -22.08408 -43.08839 36122 ft 419 kts 233°
2026-05-07 15:49 -22.11565 -43.14104 36127 ft 419 kts 233°
2026-05-07 15:50 -22.14727 -43.19383 36125 ft 420 kts 233°
2026-05-07 15:50 -22.17890 -43.24668 36121 ft 419 kts 233°
2026-05-07 15:51 -22.21036 -43.29931 36114 ft 419 kts 233°
2026-05-07 15:51 -22.24209 -43.35242 36109 ft 419 kts 233°
2026-05-07 15:52 -22.27349 -43.40502 36097 ft 419 kts 233°
2026-05-07 15:52 -22.30497 -43.45784 36087 ft 419 kts 233°
2026-05-07 15:53 -22.33654 -43.51086 36077 ft 419 kts 234°
2026-05-07 15:53 -22.36802 -43.56380 36077 ft 419 kts 233°
2026-05-07 15:54 -22.39928 -43.61638 36077 ft 418 kts 233°
2026-05-07 15:54 -22.43069 -43.66931 36091 ft 419 kts 234°
2026-05-07 15:55 -22.46233 -43.72263 36085 ft 420 kts 234°
2026-05-07 15:55 -22.49358 -43.77537 36091 ft 420 kts 234°
2026-05-07 15:56 -22.52502 -43.82849 36086 ft 419 kts 234°
2026-05-07 15:56 -22.55654 -43.88178 36060 ft 419 kts 234°
2026-05-07 15:57 -22.58772 -43.93456 36047 ft 420 kts 234°
2026-05-07 15:57 -22.61910 -43.98777 36037 ft 420 kts 234°
2026-05-07 15:58 -22.65047 -44.04097 36043 ft 420 kts 234°
2026-05-07 15:58 -22.68182 -44.09424 36068 ft 420 kts 234°
2026-05-07 15:59 -22.71307 -44.14740 36086 ft 419 kts 234°
2026-05-07 15:59 -22.74355 -44.20128 36115 ft 421 kts 238°
2026-05-07 16:00 -22.76951 -44.25837 36140 ft 424 kts 243°
2026-05-07 16:00 -22.79186 -44.31706 36144 ft 423 kts 244°
2026-05-07 16:01 -22.81396 -44.37584 36136 ft 424 kts 244°
2026-05-07 16:01 -22.83619 -44.43501 36132 ft 423 kts 244°
2026-05-07 16:02 -22.85834 -44.49409 36127 ft 424 kts 244°
2026-05-07 16:02 -22.86938 -44.52352 35856 ft 424 kts 244°
2026-05-07 16:02 -22.88049 -44.55313 35569 ft 425 kts 244°
2026-05-07 16:02 -22.89155 -44.58264 35285 ft 427 kts 244°
2026-05-07 16:03 -22.90267 -44.61235 35000 ft 427 kts 245°
2026-05-07 16:03 -22.91391 -44.64243 34713 ft 429 kts 245°
2026-05-07 16:03 -22.92502 -44.67221 34431 ft 430 kts 245°
2026-05-07 16:03 -22.93633 -44.70252 34144 ft 432 kts 245°
2026-05-07 16:04 -22.94675 -44.73043 33882 ft 434 kts 245°
2026-05-07 16:04 -22.95798 -44.76060 33599 ft 433 kts 245°
2026-05-07 16:04 -22.96920 -44.79075 33318 ft 432 kts 245°
2026-05-07 16:04 -22.98036 -44.82071 33050 ft 431 kts 245°
2026-05-07 16:05 -22.99157 -44.85084 32783 ft 429 kts 245°
2026-05-07 16:05 -23.00263 -44.88060 32520 ft 428 kts 245°
2026-05-07 16:05 -23.01375 -44.91054 32259 ft 427 kts 246°
2026-05-07 16:05 -23.02488 -44.94053 31991 ft 426 kts 245°
2026-05-07 16:06 -23.03586 -44.97017 31646 ft 425 kts 246°
2026-05-07 16:06 -23.04679 -44.99963 31074 ft 422 kts 246°
2026-05-07 16:06 -23.05763 -45.02890 30627 ft 417 kts 246°
2026-05-07 16:06 -23.06838 -45.05792 30163 ft 415 kts 246°
2026-05-07 16:07 -23.07914 -45.08700 29480 ft 415 kts 246°
2026-05-07 16:07 -23.08976 -45.11572 28945 ft 410 kts 246°
2026-05-07 16:07 -23.10041 -45.14455 28534 ft 408 kts 246°
2026-05-07 16:07 -23.11090 -45.17296 28121 ft 406 kts 246°
2026-05-07 16:08 -23.12128 -45.20106 27696 ft 405 kts 246°
2026-05-07 16:08 -23.13172 -45.22931 27265 ft 402 kts 246°
2026-05-07 16:08 -23.14215 -45.25763 26837 ft 400 kts 246°
2026-05-07 16:08 -23.15236 -45.28536 26411 ft 398 kts 246°
2026-05-07 16:09 -23.16257 -45.31310 25983 ft 396 kts 247°
2026-05-07 16:09 -23.17276 -45.34077 25564 ft 395 kts 247°
2026-05-07 16:09 -23.18191 -45.36888 25162 ft 394 kts 252°
2026-05-07 16:09 -23.18830 -45.39760 24789 ft 392 kts 258°
2026-05-07 16:10 -23.19193 -45.42703 24767 ft 394 kts 263°
2026-05-07 16:10 -23.19409 -45.45659 24678 ft 395 kts 264°
2026-05-07 16:10 -23.19600 -45.48628 24458 ft 393 kts 264°
2026-05-07 16:10 -23.19790 -45.51610 24206 ft 391 kts 264°
2026-05-07 16:11 -23.19976 -45.54516 23961 ft 390 kts 264°
2026-05-07 16:11 -23.20166 -45.57447 23707 ft 388 kts 265°
2026-05-07 16:11 -23.20354 -45.60376 23451 ft 386 kts 265°
2026-05-07 16:11 -23.20541 -45.63279 23199 ft 385 kts 265°
2026-05-07 16:12 -23.20726 -45.66157 22950 ft 384 kts 265°
2026-05-07 16:12 -23.20912 -45.69055 22697 ft 382 kts 265°
2026-05-07 16:12 -23.21097 -45.71923 22447 ft 381 kts 265°
2026-05-07 16:12 -23.21281 -45.74794 22197 ft 380 kts 266°
2026-05-07 16:13 -23.21461 -45.77625 21948 ft 380 kts 266°
2026-05-07 16:13 -23.21643 -45.80485 21680 ft 379 kts 266°
2026-05-07 16:13 -23.21824 -45.83329 21389 ft 378 kts 266°
2026-05-07 16:13 -23.22004 -45.86169 20988 ft 376 kts 266°
2026-05-07 16:14 -23.22182 -45.88981 20507 ft 374 kts 266°
2026-05-07 16:14 -23.22361 -45.91805 19890 ft 375 kts 266°
2026-05-07 16:14 -23.22539 -45.94618 19302 ft 374 kts 266°
2026-05-07 16:14 -23.22716 -45.97439 18734 ft 374 kts 267°
2026-05-07 16:15 -23.22891 -46.00246 18183 ft 373 kts 267°
2026-05-07 16:15 -23.23064 -46.03023 17639 ft 373 kts 267°
2026-05-07 16:15 -23.23239 -46.05846 17082 ft 373 kts 267°
2026-05-07 16:15 -23.23413 -46.08660 16559 ft 372 kts 267°
2026-05-07 16:16 -23.23583 -46.11434 16080 ft 370 kts 267°
2026-05-07 16:16 -23.23752 -46.14192 15630 ft 367 kts 267°
2026-05-07 16:16 -23.23923 -46.16947 15153 ft 365 kts 267°
2026-05-07 16:16 -23.24091 -46.19703 14674 ft 363 kts 267°
2026-05-07 16:17 -23.24256 -46.22405 14235 ft 361 kts 268°
2026-05-07 16:17 -23.24423 -46.25134 13773 ft 359 kts 267°
2026-05-07 16:17 -23.24587 -46.27817 13295 ft 357 kts 268°
2026-05-07 16:17 -23.24750 -46.30505 12823 ft 355 kts 268°
2026-05-07 16:18 -23.24911 -46.33164 12378 ft 353 kts 268°
2026-05-07 16:18 -23.25071 -46.35822 11961 ft 348 kts 268°
2026-05-07 16:18 -23.25224 -46.38364 11758 ft 337 kts 268°
2026-05-07 16:18 -23.25376 -46.40890 11570 ft 326 kts 268°
2026-05-07 16:19 -23.25521 -46.43305 11391 ft 316 kts 269°
2026-05-07 16:19 -23.25661 -46.45656 11191 ft 307 kts 269°
2026-05-07 16:19 -23.25795 -46.47928 11002 ft 298 kts 269°
2026-05-07 16:19 -23.25927 -46.50141 10798 ft 290 kts 269°
2026-05-07 16:20 -23.26055 -46.52304 10611 ft 282 kts 269°
2026-05-07 16:20 -23.26179 -46.54410 10427 ft 274 kts 270°
2026-05-07 16:20 -23.26299 -46.56437 10236 ft 268 kts 270°
2026-05-07 16:20 -23.26520 -46.58427 10008 ft 265 kts 254°
2026-05-07 16:21 -23.27535 -46.60054 9822 ft 264 kts 220°
2026-05-07 16:21 -23.29052 -46.61162 9638 ft 259 kts 211°
2026-05-07 16:21 -23.30606 -46.62119 9375 ft 257 kts 211°
2026-05-07 16:21 -23.31974 -46.62980 9123 ft 256 kts 212°
2026-05-07 16:22 -23.33228 -46.63804 8906 ft 255 kts 213°
2026-05-07 16:22 -23.34761 -46.64853 8625 ft 253 kts 214°
2026-05-07 16:22 -23.36181 -46.65848 8355 ft 252 kts 215°
2026-05-07 16:22 -23.37655 -46.66893 8107 ft 250 kts 215°
2026-05-07 16:23 -23.39098 -46.67919 7960 ft 242 kts 216°
2026-05-07 16:23 -23.40488 -46.68908 7815 ft 234 kts 216°
2026-05-07 16:23 -23.41923 -46.69679 7542 ft 233 kts 188°
2026-05-07 16:23 -23.43494 -46.69442 7096 ft 228 kts 144°
2026-05-07 16:24 -23.44549 -46.68240 6663 ft 219 kts 117°
2026-05-07 16:24 -23.45075 -46.67241 6367 ft 218 kts 115°
2026-05-07 16:24 -23.45693 -46.66034 6007 ft 218 kts 116°
2026-05-07 16:24 -23.46510 -46.64550 5567 ft 218 kts 118°
2026-05-07 16:25 -23.47283 -46.63150 5163 ft 214 kts 105°
2026-05-07 16:25 -23.47422 -46.61596 4764 ft 201 kts 76°
2026-05-07 16:25 -23.47076 -46.60180 4430 ft 187 kts 68°
2026-05-07 16:25 -23.46682 -46.58930 4245 ft 165 kts 68°
2026-05-07 16:26 -23.46348 -46.57794 4094 ft 152 kts 68°
2026-05-07 16:26 -23.46042 -46.56698 3891 ft 148 kts 70°
2026-05-07 16:26 -23.45756 -46.55639 3677 ft 148 kts 69°
2026-05-07 16:26 -23.45558 -46.54904 3563 ft 149 kts 70°
2026-05-07 16:27 -23.45164 -46.53446 3299 ft 153 kts 70°
2026-05-07 16:27 -23.44861 -46.52316 3123 ft 154 kts 69°
2026-05-07 16:27 -23.44559 -46.51205 2941 ft 148 kts 70°
2026-05-07 16:27 -23.44270 -46.50150 2744 ft 145 kts 70°
2026-05-07 16:28 -23.43988 -46.49079 2556 ft 150 kts 71°
2026-05-07 16:28 -23.43701 -46.48026 2468 ft 138 kts 72°
2026-05-07 16:28 -23.43478 -46.47203 2468 ft 88 kts 73°
2026-05-07 16:28 -23.43354 -46.46738 2469 ft 41 kts 73°
2026-05-07 16:29 -23.43276 -46.46458 2469 ft 36 kts 66°
2026-05-07 16:29 -23.43117 -46.46257 2469 ft 33 kts 44°
2026-05-07 16:29 -23.42958 -46.46140 2470 ft 24 kts 349°
2026-05-07 16:29 -23.42803 -46.46188 2470 ft 22 kts 343°
2026-05-07 16:30 -23.42665 -46.46232 2470 ft 15 kts 345°
2026-05-07 16:30 -23.42624 -46.46310 2470 ft 14 kts 253°
2026-05-07 16:30 -23.42655 -46.46419 2470 ft 15 kts 254°
2026-05-07 16:30 -23.42685 -46.46531 2470 ft 15 kts 254°
2026-05-07 16:31 -23.42716 -46.46647 2470 ft 16 kts 253°
2026-05-07 16:31 -23.42749 -46.46768 2469 ft 16 kts 254°
2026-05-07 16:31 -23.42782 -46.46890 2469 ft 16 kts 254°
2026-05-07 16:31 -23.42814 -46.47009 2469 ft 16 kts 254°
2026-05-07 16:32 -23.42845 -46.47124 2469 ft 15 kts 254°
2026-05-07 16:32 -23.42875 -46.47236 2469 ft 15 kts 253°
2026-05-07 16:32 -23.42906 -46.47346 2469 ft 15 kts 254°
2026-05-07 16:32 -23.42934 -46.47455 2469 ft 15 kts 254°
2026-05-07 16:33 -23.42964 -46.47564 2469 ft 14 kts 254°
2026-05-07 16:33 -23.42992 -46.47670 2468 ft 14 kts 255°
2026-05-07 16:33 -23.43020 -46.47770 2468 ft 13 kts 254°
2026-05-07 16:33 -23.43046 -46.47867 2468 ft 13 kts 253°
2026-05-07 16:34 -23.43073 -46.47966 2468 ft 13 kts 254°
2026-05-07 16:34 -23.43099 -46.48062 2468 ft 13 kts 254°
2026-05-07 16:34 -23.43063 -46.48134 2468 ft 11 kts 326°
2026-05-07 16:34 -23.43052 -46.48216 2468 ft 10 kts 265°
2026-05-07 16:35 -23.43054 -46.48265 2468 ft 4 kts 291°
2026-05-07 16:35 -23.43018 -46.48278 2468 ft 6 kts 353°
2026-05-07 16:35 -23.42981 -46.48281 2468 ft 3 kts 356°
2026-05-07 16:35 -23.42973 -46.48281 2468 ft 0 kts 357°